ORBVIEW 2 (SEASTAR)

Last updated on Tue Sep 16 2025 00:02:15 GMT+0000 (Coordinated Universal Time)

1 24883U 97037A 25258.38570468 .00000362 00000+0 14253-3 0 9992 2 24883 98.8389 53.2767 0001851 189.4944 170.6205 14.35313156483329
UTC large
Height (km)
Speed (km/s)
/
Latitude / Longitude
Inclination (degrees)
Orbital Period (minutes)
Azimuth
Elevation
Range (km)
Doppler Factor

Next 0 passes for location: London (51.5072 / 0.1276)

Sorry there are no passes over London.